User: anonymous   Login
Location: Laterina
(43.5167°N, 11.7167°E)
Time: 23:38:38
(UTC+00:00)
Language:

Cosmos 1833 Rocket - Orbit

View from above orbital plane
View from above orbital plane
View from above satellite
View from above satellite

Ground track
Ground track

The orbit data is extracted from the following two-line orbital elements,

1 17590U 87027B   20331.51140327 -.00000134 +00000-0 -42875-4 0  9998
2 17590 071.0045 020.1236 0005761 209.8050 150.2746 14.16793251742117
Epoch (UTC): 26 November 2020 12:16:25
Eccentricity: 0.0005761
inclination: 71.0045°
perigee height: 832 km
apogee height: 840 km
right ascension of ascending node: 20.1236°
argument of perigee: 209.8050°
revolutions per day: 14.16793251
mean anomaly at epoch: 150.2746°
orbit number at epoch: 74211

The dashed part of the orbit path shows where the satellite is in the earth's shadow,  

DLR